Location: Unspecified
(0.0000°N, 0.0000°E)
Time: 12:42:22
(UTC+00:00)

XW-2F - Visible Passes

Search period start: 13 July 2020 00:00
Search period end: 23 July 2020 00:00
Orbit: 503 x 521 km, 97.5° (Epoch: 13 July)

Date Brightness Start Highest point End Pass type
(mag) Time Alt. Az. Time Alt. Az. Time Alt. Az.
13 Jul ? 05:13:49 10° NE 05:17:00 26° ESE 05:20:09 10° SSE visible
13 Jul ? 18:41:34 10° WSW 18:42:43 11° WSW 18:43:52 10° W visible
14 Jul ? 04:58:51 10° ENE 05:01:02 15° ESE 05:03:15 10° SE visible
18 Jul ? 05:27:22 10° NNE 05:30:56 44° E 05:34:30 10° S visible
19 Jul ? 05:11:55 10° NE 05:14:58 24° E 05:18:02 10° SSE visible
19 Jul ? 18:39:10 10° SW 18:40:42 12° WSW 18:42:14 10° WNW visible
20 Jul ? 04:57:03 10° ENE 04:59:01 14° ESE 05:00:59 10° SE visible
